Regional Weather Roundup
Issued by NWS Sterling, VA

Home | Current Version | Previous Version | Graphics & Text | Print | Product List | Glossary On
Versions: 1 2 3 4 5 6 7 8 9 10 11 12 13 14 15 16 17 18 19 20 21 22 23 24 25 26 27 28 29 30 31 32 33 34 35 36 37 38 39 40 41 42 43 44 45 46 47 48 49 50
000
ASUS41 KLWX 272110
RWRLWX

REGIONAL WEATHER ROUNDUP
NATIONAL WEATHER SERVICE BALTIMORE MD/WASHINGTON DC
500 PM EDT SUN JUL 27 2014

Note: "FAIR" indicates few or no clouds below 12,000 feet
with no significant weather and/or obstructions to visibility.
 TC=TEMPERATURE CELSIUS

 * =Non NWS site. Station does not report precipitation (e.g. rain,
    snow, etc.), thunder, or fog.

DCZ001-MDZ009-015-VAZ040>042-051-053>054-272200-
WASHINGTON METRO
  /KDAA//-FT BELVOIR

CITY           SKY/WX    TMP DP  RH WIND       PRES   REMARKS
WASHINGTON NAT CLOUDY    85  69  58 S14G22    29.74F
DULLES         CLOUDY    80  69  69 S8        29.73F
ANDREWS AFB    CLOUDY    85  70  61 S14       29.74F
QUANTICO       CLOUDY    82  71  69 SW9       29.75F
COLLEGE PARK*  CLOUDY    86  70  58 S6        29.73F HX  90
LEESBURG*      LGT RAIN  82  73  74 SW6       29.75F
MANASSAS*      MOSUNNY   82  73  74 S8        29.75F
GAITHERSBURG*  PTSUNNY   82  70  65 SW8       29.77F

$$

MDZ006>007-011-014-272200-
BALTIMORE METRO

CITY           SKY/WX    TMP DP  RH WIND       PRES   REMARKS
BWI AIRPORT    PTSUNNY   85  70  60 S10G16    29.72F
MD SCIENCE CTR   N/A     89  69  51 MISG      29.71F HX  93
MARTIN STATE   PTSUNNY   88  75  66 S10       29.73F HX  97
ANNAPOLIS      PTSUNNY   83  69  62 SW9G18    29.73F
FORT MEADE*    PTSUNNY   84  70  61 SW10      29.76S

$$

MDZ012-015-019>023-272200-
MARYLAND EASTERN SHORE

CITY           SKY/WX    TMP DP  RH WIND       PRES   REMARKS
OCEAN CITY     PTSUNNY   84  70  62 W10       29.76F
SALISBURY      SUNNY     86  70  58 SW10      29.76F HX  90
BAY BRIDGE AP*   N/A     82  68  61 S12       29.74F
CAMBRIDGE*     PTSUNNY   81  70  69 S6        29.75F
EASTON*        PTSUNNY   84  72  65 SW10G20   29.79F

$$

MDZ017>025-272200-
SOUTHERN MARYLAND

CITY           SKY/WX    TMP DP  RH WIND       PRES   REMARKS
PATUXENT RIVER PTSUNNY   82  71  69 SW8       29.75F
ST INIGOES     PTSUNNY   83  70  64 SW12      29.75F
LEONARDTOWN*   PTSUNNY   81  70  69 SW6       29.77F

$$

MDZ003>005-272200-
NORTH CENTRAL MARYLAND

CITY           SKY/WX    TMP DP  RH WIND       PRES   REMARKS
FREDERICK*     SUNNY     84  70  61 MISG      29.74F
HAGERSTOWN APT PTSUNNY   84  68  58 S15G21    29.71F
WESTMINSTER*   PTSUNNY   86  77  74 SW10      29.74F HX  97

$$

MDZ501>502-272200-
WESTERN MARYLAND

CITY           SKY/WX    TMP DP  RH WIND       PRES   REMARKS
OAKLAND*       PTSUNNY   72  68  88 SW7       29.84F
CUMBERLAND*    PTSUNNY   86  64  48 S6        29.76F

$$

VAZ025>031-272200-
SHENANDOAH VALLEY

CITY           SKY/WX    TMP DP  RH WIND       PRES   REMARKS
WINCHESTER*    CLOUDY    77  70  78 SW5       29.75F
STAUNTON*      CLOUDY    81  68  65 SW9       29.82R

$$

WVZ021-048>050-054>055-272200-
EASTERN WEST VIRGINIA PANHANDLE

CITY           SKY/WX    TMP DP  RH WIND       PRES   REMARKS
MARTINSBURG    CLOUDY    81  67  62 SW9       29.74F
PETERSBURG*    PTSUNNY   85  61  44 S6        29.74F

$$

VAZ036>039-050-272200-
CENTRAL FOOTHILLS

CITY           SKY/WX    TMP DP  RH WIND       PRES   REMARKS
CHARLOTTESVILL CLOUDY    81  71  71 S7        29.77F
ORANGE*        CLOUDY    82  72  69 S15       29.78F

$$

VAZ055>057-272200-
NORTH AND CENTRAL PIEDMONT

CITY           SKY/WX    TMP DP  RH WIND       PRES   REMARKS
FREDERICKSBRG* CLOUDY    83  73  70 SW7G16    29.75S
STAFFORD*      CLOUDY    81  73  77 SW5       29.80S

$$

NCZ024-NYZ072-PAZ021-071-VAZ022-071-272200-
OTHER REGIONAL OBSERVATIONS

CITY           SKY/WX    TMP DP  RH WIND       PRES   REMARKS
NEW YORK CITY  MOSUNNY   83  67  58 VRB5      29.72F
PHILADELPHIA   PTSUNNY   88  69  53 S14       29.71F HX  92
PITTSBURGH     TSTM      71  66  84 SW14G29   29.74F
ROANOKE        CLOUDY    82  64  54 SW5       29.84F
RICHMOND       PTSUNNY   87  68  52 SW15G23   29.78F HX  90
RALEIGH        PTSUNNY   86  72  62 SW15      29.87F HX  92

$$

ANZ530>537-272200-
MARINE OBSERVATIONS

STATION/POSITION TIME  TEMP    WIND        PRES
                       AIR SEA DIR/SP/G
                 (UTC) (F)     (DEG/KT/KT) (MB)
THOMAS PT LIGHT  2100   81 80  210/ 13/ 14 1007.6F
BALT KEY BRIDGE  2100   85     170/ 11/ 15 1005.9S
COVE POINT       2100   81     210/  5/  7 1007.3F
LEWISETTA        2100   82 80  220/ 11/ 14 1007.2F
SOLOMONS ISLAND  2100      80                N/A
PINEY POINT      2100          250/  5/  7   N/A

$$




USA.gov is the U.S. government's official web portal to all federal, state and local government web resources and services.